Powrót do katalogu

ONEWEB-0578

AktywnyŁącznośćPO
NORAD 56067·PAYLOAD·🇬🇧 United Kingdom

Wystrzelony Mar 26, 2023 z Satish Dhawan Space Centre

Loading…

Następne Przeloty (najbliższe 24 godziny)

TLE

ŚwieżeSource: CelesTrak SupGP

Epoka: Sep 15, 2026, 02:47 UTC

1 56067C 23043X   26258.11650880 -.00003407  00000+0 -82585-2 0  2581
2 56067  87.9280 226.0726 0001978  91.1591 320.5483 13.21828562    10

Śledź ONEWEB-0578 w czasie rzeczywistym z AllMySat

Download on the App Store